Flight Track Log - Related Links

Times and Time Zones

All times are in EDT time to prevent confusion due to time zone crossing. See the N870DC flight status page for this flight to view local times or setup timezone preferences in your user account.

Time Position Orientation Groundspeed Altitude Reporting Facility
EDT Latitude Longitude Course Direction KTS MPH feet Rate Location/Type
Fri 11:45:11 AM 39.8833 -75.2333 75° East 134 154 1,100  Level Philadelphia TRACON
Fri 11:46:23 AM 39.9000 -75.1500 75° East 200 230 4,600 3,045 Climbing Philadelphia TRACON
Fri 11:47:23 AM 39.9500 -75.1167 27° Northeast 264 304 7,800 2,700 Climbing Philadelphia TRACON
Fri 11:48:23 AM 40.0167 -75.1833 323° Northwest 316 364 10,000 1,150 Climbing Philadelphia TRACON
Fri 11:49:23 AM 40.0667 -75.2833 303° West 365 420 10,100 1,154 Climbing Philadelphia TRACON
Fri 11:50:33 AM 40.1367 -75.4164 305° West 414 476 12,500 1,374 Climbing New York Center
Fri 11:51:34 AM 40.1933 -75.5125 308° West 389 448 13,100 1,488 Climbing New York Center
Fri 11:52:34 AM 40.2678 -75.6292 310° West 384 442 15,500 1,950 Climbing New York Center
Fri 11:53:34 AM 40.3403 -75.7378 311° West 384 442 17,000 744 Climbing New York Center
Fri 11:54:35 AM 40.4108 -75.8464 310° West 384 442 17,000 -50 Level New York Center
Fri 11:55:35 AM 40.4550 -75.9781 294° West 391 450 16,900 102 Descending New York Center
Fri 11:56:33 AM 40.4744 -76.1050 281° West 399 459 17,200 763 Climbing New York Center
Fri 11:57:33 AM 40.4969 -76.2486 282° West 399 459 18,400 1,636 Climbing New York Center
Fri 11:58:34 AM 40.5311 -76.4125 285° West 414 476 20,500 2,479 Climbing New York Center
Fri 11:59:34 AM 40.5658 -76.5547 288° West 419 482 23,400 2,750 Climbing New York Center
Fri 12:00:34 PM 40.5961 -76.6994 285° West 419 482 26,000 2,132 Climbing New York Center
Fri 12:01:35 PM 40.6286 -76.8417 287° West 419 482 27,700 1,587 Climbing New York Center
Fri 12:02:35 PM 40.6606 -76.9869 286° West 419 482 29,200 1,576 Climbing New York Center
Fri 12:03:33 PM 40.6942 -77.1378 286° West 419 482 30,800 1,576 Climbing New York Center
Fri 12:04:33 PM 40.7275 -77.2914 286° West 427 491 32,300 1,438 Climbing New York Center
Fri 12:05:34 PM 40.7594 -77.4289 287° West 432 497 33,700 1,438 Climbing New York Center
Fri 12:06:34 PM 40.7925 -77.5800 286° West 427 491 35,200 1,482 Climbing New York Center
Fri 12:08:24 PM 40.8083 -77.8644 274° West 433 498 37,900 1,271 Climbing Cleveland Center
Fri 12:09:24 PM 40.8181 -78.0178 275° West 422 486 38,800 1,050 Climbing Cleveland Center
Fri 12:10:24 PM 40.8650 -78.1586 294° West 411 473 40,000 600 Climbing Cleveland Center
Fri 12:11:24 PM 40.9386 -78.3017 304° West 416 479 40,000  Level Cleveland Center
Fri 12:12:24 PM 41.0039 -78.4369 303° West 430 495 40,000  Level Cleveland Center
Fri 12:13:24 PM 41.0708 -78.5697 304° West 435 501 40,000  Level Cleveland Center
Fri 12:14:24 PM 41.1358 -78.7056 302° West 435 501 40,000  Level Cleveland Center
Fri 12:15:24 PM 41.2025 -78.8417 303° West 435 501 40,000  Level Cleveland Center
Fri 12:16:24 PM 41.2672 -78.9836 301° West 445 512 40,000  Level Cleveland Center
Fri 12:17:24 PM 41.3358 -79.1231 303° West 445 512 40,000  Level Cleveland Center
Fri 12:18:24 PM 41.4019 -79.2628 302° West 445 512 40,000  Level Cleveland Center
Fri 12:19:24 PM 41.4619 -79.3889 302° West 451 519 40,000  Level Cleveland Center
Fri 12:20:24 PM 41.5278 -79.5264 303° West 451 519 40,000  Level Cleveland Center
Fri 12:21:24 PM 41.5936 -79.6642 303° West 451 519 40,000  Level Cleveland Center
Fri 12:22:24 PM 41.6678 -79.8158 303° West 451 519 40,000  Level Cleveland Center
Fri 12:23:24 PM 41.7331 -79.9600 301° West 446 513 40,000  Level Cleveland Center
Fri 12:24:24 PM 41.7964 -80.0986 302° West 453 521 40,000  Level Cleveland Center
Fri 12:25:24 PM 41.8636 -80.2403 303° West 448 516 40,000  Level Cleveland Center
Fri 12:26:24 PM 41.9286 -80.3794 302° West 448 516 40,000 -250 Level Cleveland Center
Fri 12:27:24 PM 41.9933 -80.5217 302° West 448 516 39,500 -750 Descending Cleveland Center
Fri 12:28:24 PM 42.0600 -80.6669 302° West 453 521 38,500 -1,000 Descending Cleveland Center
Fri 12:29:24 PM 42.1244 -80.8128 301° West 453 521 37,500 -1,000 Descending Cleveland Center
Fri 12:30:24 PM 42.1928 -80.9558 303° West 459 528 36,500 -750 Descending Cleveland Center
Fri 12:31:24 PM 42.2569 -81.0994 301° West 449 517 36,000 -250 Descending Cleveland Center
Fri 12:32:24 PM 42.3208 -81.2403 302° West 444 511 36,000 -200 Level Cleveland Center
Fri 12:33:24 PM 42.3825 -81.3842 300° West 451 519 35,600 -700 Descending Cleveland Center
Fri 12:34:24 PM 42.4458 -81.5258 301° West 444 511 34,600 -850 Descending Cleveland Center
Fri 12:35:24 PM 42.5011 -81.6478 302° West 444 511 33,900 -850 Descending Cleveland Center
Fri 12:36:24 PM 42.5622 -81.7869 301° West 438 504 32,900 -1,000 Descending Cleveland Center
Fri 12:37:24 PM 42.6192 -81.9233 300° West 425 489 31,900 -1,100 Descending Cleveland Center
Fri 12:38:24 PM 42.6900 -82.0803 302° West 434 499 30,700 -1,100 Descending Cleveland Center
Fri 12:39:24 PM 42.7528 -82.2231 301° West 440 506 29,700 -1,000 Descending Cleveland Center
Fri 12:40:24 PM 42.8133 -82.3661 300° West 445 512 28,700 -1,000 Descending Cleveland Center
Fri 12:41:24 PM 42.8733 -82.5067 300° West 445 512 27,700 -1,050 Descending Cleveland Center
Fri 12:42:24 PM 42.9356 -82.6478 301° West 445 512 26,600 -1,300 Descending Cleveland Center
Fri 12:43:24 PM 42.9933 -82.7914 299° West 445 512 25,100 -1,500 Descending Cleveland Center
Fri 12:44:24 PM 43.0553 -82.9300 301° West 440 506 23,600 -2,000 Descending Cleveland Center
Fri 12:45:24 PM 43.1128 -83.0661 300° West 428 493 21,100 -2,500 Descending Cleveland Center
Fri 12:46:24 PM 43.1642 -83.1933 299° West 406 467 18,600 -2,400 Descending Cleveland Center
Fri 12:47:24 PM 43.2175 -83.3208 300° West 396 456 16,300 -2,400 Descending Cleveland Center
Fri 12:48:24 PM 43.2689 -83.4431 300° West 388 447 13,800 -2,400 Descending Cleveland Center
Fri 12:49:24 PM 43.3181 -83.5594 300° West 373 429 11,500 -1,900 Descending Cleveland Center
Fri 12:50:24 PM 43.3589 -83.6669 298° West 352 405 10,000 -1,800 Descending Cleveland Center
Fri 12:51:24 PM 43.4025 -83.7519 305° West 303 349 7,900 -2,350 Descending Cleveland Center
Fri 12:52:24 PM 43.4589 -83.8236 317° Northwest 276 318 5,300 -1,450 Descending Cleveland Center
Fri 12:53:24 PM 43.5003 -83.9031 306° West 276 318 5,000 2,850 Descending Cleveland Center
Fri 12:54:24 PM 43.5503 -83.9831 311° West 276 318 11,000 3,000 Climbing Cleveland Center
Fri 12:55:24 PM 43.5997 -84.0661 309° West 276 318 11,000  Level Cleveland Center
Fri 12:56:24 PM 43.6494 -84.1464 311° West 276 318 11,000  Level Cleveland Center
Fri 12:57:24 PM 43.6594 -84.1644 307° West 276 318 11,000  Level Cleveland Center
Fri 12:59:00 PM 43.5329 -84.0796 157° South  Level Estimated

Login

Don't have an account? Register now (free) for customized features, flight alerts, and more!